Location: Unspecified
(0.0000°N, 0.0000°E)
Time: 01:05:53
(UTC+02:00)

USA 116 - Visible Passes

Search period start: 23 October 2014 00:00
Search period end: 01 November 2014 23:00
Orbit: 405 x 834 km, 97.9° (Epoch: 18 November)

Date Brightness Start Highest point End Pass type
(mag) Time Alt. Az. Time Alt. Az. Time Alt. Az.
23 Oct 5.5 05:48:58 10° SE 05:51:41 24° ENE 05:51:55 24° ENE visible
24 Oct 4.4 06:03:07 10° SSE 06:06:16 44° ENE 06:06:56 39° NE visible
25 Oct 3.3 06:17:34 10° SSE 06:20:52 87° ENE 06:21:57 42° N visible
26 Oct 3.6 05:32:16 10° S 05:35:30 49° W 05:36:59 29° NW visible
27 Oct 4.4 05:47:14 10° SSW 05:50:09 27° W 05:52:01 18° NW visible
28 Oct 6.6 04:27:50 10° E 04:29:10 12° ENE 04:30:03 11° ENE visible
28 Oct 5.1 06:02:35 10° SW 06:04:50 16° W 06:07:03 11° WNW visible
29 Oct 6.0 04:41:03 10° SE 04:43:43 20° ENE 04:45:05 17° NE visible
30 Oct 5.1 04:55:01 10° SE 04:58:16 34° ENE 05:00:07 22° NNE visible
31 Oct 4.0 05:09:19 10° SSE 05:12:51 62° ENE 05:15:10 23° N visible
01 Nov 3.5 05:23:52 10° S 05:27:28 73° W 05:30:12 20° NNW visible
